Olathe, KS

9:07 AM CDT on July 28, 2017 (GMT -0500)
Johnson County Executive

Weather History for KOJC - May, 2013

Change the Weather History Date:

Wednesday, May 22, 2013

  Actual Average Record
Temperature  
Mean Temperature 60 °F 67 °F  
Max Temperature 66 °F 76 °F 95 °F (1956)
Min Temperature 54 °F 57 °F 38 °F (1963)
Degree Days  
Heating Degree Days 5 2  
Month to date heating degree days 146 81  
Since 1 July heating degree days 5076 4912  
Cooling Degree Days 0 4  
Month to date cooling degree days 47 44  
Year to date cooling degree days 58 62  
Growing Degree Days 10 (Base 50)    
Moisture  
Dew Point 49 °F    
Average Humidity 68    
Maximum Humidity 83    
Minimum Humidity 52    
Precipitation  
Precipitation 0.00 in 0.18 in 1.40 in (1969)
Month to date precipitation 2.31 3.93  
Year to date precipitation 11.60 13.24  
Sea Level Pressure  
Sea Level Pressure 29.82 in    
Wind  
Wind Speed 8 mph (WNW)    
Max Wind Speed 16 mph    
Max Gust Speed 23 mph    
Visibility 10 miles    
Events      
T = Trace of Precipitation, MM = Missing Value Source: NWS Daily Summary

Daily Weather History Graph

Daily Weather History Graph

Search for Another Location

Airport or City:

Trip Planner

Search our weather history database for the weather conditions in past years. The results will help you decide how hot, cold, wet, or windy it might be!

Date:

Astronomy

May. 22, 2013 Rise Set
Actual Time 6:00 AM CDT 8:30 PM CDT
Civil Twilight 5:30 AM CDT 9:01 PM CDT
Nautical Twilight 4:52 AM CDT 9:39 PM CDT
Astronomical Twilight 4:10 AM CDT 10:22 PM CDT
Moon 5:55 PM CDT (5/22) 4:03 AM CDT (5/22)
Length of Visible Light 15h 31m
Length of Day
14h 30m
Waxing Gibbous, 91% of the Moon is Illuminated
May 22
Waxing Gibbous
May 24
Full
May 31
Last Quarter
Jun 8
New
Jun 16
First Quarter

Hourly Weather History & Observations

Time (CDT) Temp. Dew Point Humidity Pressure Visibility Wind Dir Wind Speed Gust Speed Precip Events Conditions
12:53 AM 61.0 °F 50.0 °F 67% 29.74 in 10.0 mi WNW 4.6 mph - N/A   Scattered Clouds
1:53 AM 60.1 °F 48.9 °F 67% 29.73 in 10.0 mi NW 4.6 mph - N/A   Overcast
2:53 AM 57.9 °F 48.9 °F 72% 29.73 in 10.0 mi WNW 6.9 mph - N/A   Clear
3:53 AM 57.9 °F 48.9 °F 72% 29.73 in 10.0 mi NW 6.9 mph - N/A   Mostly Cloudy
4:53 AM 55.9 °F 48.9 °F 77% 29.73 in 10.0 mi WNW 6.9 mph - N/A   Scattered Clouds
5:53 AM 54.0 °F 48.0 °F 80% 29.74 in 10.0 mi WNW 4.6 mph - N/A   Clear
6:53 AM 55.0 °F 48.0 °F 77% 29.75 in 10.0 mi West 5.8 mph - N/A   Clear
7:53 AM 57.0 °F 48.9 °F 74% 29.77 in 10.0 mi WNW 10.4 mph - N/A   Clear
8:53 AM 57.0 °F 48.9 °F 74% 29.78 in 10.0 mi West 12.7 mph 18.4 mph N/A   Scattered Clouds
9:53 AM 59.0 °F 48.0 °F 67% 29.80 in 10.0 mi WNW 15.0 mph 21.9 mph N/A   Scattered Clouds
10:12 AM 57.2 °F 46.4 °F 67% 29.83 in 10.0 mi West 9.2 mph 19.6 mph N/A   Mostly Cloudy
10:53 AM 57.9 °F 46.9 °F 67% 29.83 in 10.0 mi West 9.2 mph 17.3 mph N/A   Overcast
11:53 AM 59.0 °F 48.0 °F 67% 29.84 in 10.0 mi WNW 9.2 mph 18.4 mph N/A   Overcast
12:53 PM 61.0 °F 48.0 °F 62% 29.85 in 10.0 mi WNW 12.7 mph 17.3 mph N/A   Overcast
1:08 PM 60.8 °F 48.2 °F 63% 29.86 in 10.0 mi West 11.5 mph - N/A   Overcast
1:53 PM 63.0 °F 48.9 °F 60% 29.85 in 10.0 mi West 10.4 mph - N/A   Overcast
2:53 PM 63.0 °F 48.9 °F 60% 29.85 in 10.0 mi WNW 10.4 mph - N/A   Overcast
3:53 PM 64.0 °F 48.9 °F 58% 29.84 in 10.0 mi West 5.8 mph - N/A   Overcast
4:53 PM 64.9 °F 50.0 °F 58% 29.84 in 10.0 mi NW 9.2 mph - N/A   Overcast
5:53 PM 66.0 °F 48.9 °F 54% 29.85 in 10.0 mi WNW 10.4 mph - N/A   Overcast
6:53 PM 64.9 °F 48.9 °F 56% 29.84 in 10.0 mi West 8.1 mph - N/A   Scattered Clouds
7:53 PM 64.9 °F 48.9 °F 56% 29.86 in 10.0 mi Variable 5.8 mph - N/A   Overcast
8:53 PM 64.9 °F 50.0 °F 58% 29.88 in 10.0 mi WNW 4.6 mph - N/A   Overcast
9:53 PM 64.0 °F 51.1 °F 63% 29.91 in 10.0 mi North 8.1 mph - N/A   Overcast
10:53 PM 63.0 °F 48.9 °F 60% 29.94 in 10.0 mi North 4.6 mph - N/A   Overcast
11:53 PM 62.1 °F 48.9 °F 62% 29.94 in 10.0 mi NNW 8.1 mph - N/A   Overcast